Weather History for KMVE - June, 2013

Change the Weather History Date:

Sunday, June 23, 2013

  Actual Average Record
Temperature  
Mean Temperature 72 °F -  
Max Temperature 80 °F 81 °F 98 °F (2005)
Min Temperature 64 °F 57 °F 46 °F (1961)
Cooling Degree Days 7    
Growing Degree Days 22 (Base 50)    
Moisture  
Dew Point 64 °F    
Average Humidity 79    
Maximum Humidity 100    
Minimum Humidity 51    
Precipitation  
Precipitation 0.95 in - - ()
Sea Level Pressure  
Sea Level Pressure 29.79 in    
Wind  
Wind Speed 9 mph (West)    
Max Wind Speed 16 mph    
Max Gust Speed 23 mph    
Visibility 10 miles    
Events Rain , Thunderstorm    
Averages and records for this station are not official NWS values.
T = Trace of Precipitation, MM = Missing Value Source: NWS Daily Summary

Daily Weather History Graph

Daily Weather History Graph

Search for Another Location

Airport or City:

Trip Planner

Search our weather history database for the weather conditions in past years. The results will help you decide how hot, cold, wet, or windy it might be!

Date:

Astronomy

Jun. 23, 2013 Rise Set
Actual Time 5:36 AM CDT 9:13 PM CDT
Civil Twilight 4:59 AM CDT 9:50 PM CDT
Nautical Twilight 4:09 AM CDT 10:40 PM CDT
Astronomical Twilight 3:03 AM CDT 11:46 PM CDT
Moon 9:22 PM CDT (6/23) 5:58 AM CDT (6/23)
Length of Visible Light 16h 51m
Length of Day
15h 36m
Full, 100% of the Moon is Illuminated
Jun 23
Full
Jun 29
Last Quarter
Jul 8
New
Jul 15
First Quarter
Jul 22
Full

Hourly Weather History & Observations

Time (CDT) Temp. Heat Index Dew Point Humidity Pressure Visibility Wind Dir Wind Speed Gust Speed Precip Events Conditions
12:14 AM 71.6 °F - 69.8 °F 94% 29.75 in 10.0 mi SE 10.4 mph - N/A   Scattered Clouds
12:34 AM 71.6 °F - 69.8 °F 94% 29.76 in 10.0 mi SSE 12.7 mph - N/A   Scattered Clouds
12:54 AM 71.6 °F - 69.8 °F 94% 29.76 in 10.0 mi SSE 10.4 mph 16.1 mph N/A Thunderstorm Mostly Cloudy
1:14 AM 71.6 °F - 69.8 °F 94% 29.77 in 10.0 mi SSE 15.0 mph 19.6 mph N/A   Scattered Clouds
1:34 AM 71.6 °F - 69.8 °F 94% 29.75 in 7.0 mi SE 11.5 mph - 0.01 in Rain , Thunderstorm Thunderstorms and Rain
1:54 AM 71.6 °F - 71.6 °F 100% 29.76 in 10.0 mi South 9.2 mph - 0.04 in Rain , Thunderstorm Thunderstorms and Rain
2:14 AM 71.6 °F - 71.6 °F 100% 29.73 in 10.0 mi South 12.7 mph - 0.03 in Rain , Thunderstorm Light Thunderstorms and Rain
2:34 AM 68.0 °F - 68.0 °F 100% 29.73 in 10.0 mi South 5.8 mph 9.2 mph 0.04 in Rain , Thunderstorm Light Thunderstorms and Rain
2:54 AM 66.2 °F - 66.2 °F 100% 29.70 in 10.0 mi South 8.1 mph - 0.07 in Rain , Thunderstorm Thunderstorms and Rain
3:14 AM 66.2 °F - 66.2 °F 100% 29.79 in 10.0 mi WNW 11.5 mph - 0.03 in Rain , Thunderstorm Light Thunderstorms and Rain
3:34 AM 64.4 °F - 64.4 °F 100% 29.81 in 7.0 mi WNW 11.5 mph - 0.41 in Rain , Thunderstorm Heavy Thunderstorms and Rain
3:54 AM 64.4 °F - 64.4 °F 100% 29.71 in 7.0 mi East 13.8 mph - 0.61 in Rain , Thunderstorm Heavy Thunderstorms and Rain
4:14 AM 64.4 °F - 64.4 °F 100% 29.70 in 10.0 mi East 6.9 mph - 0.05 in Rain , Thunderstorm Light Thunderstorms and Rain
4:34 AM 64.4 °F - 64.4 °F 100% 29.77 in 5.0 mi SSW 4.6 mph 12.7 mph 0.18 in Rain , Thunderstorm Heavy Thunderstorms and Rain
4:54 AM 64.4 °F - 64.4 °F 100% 29.72 in 10.0 mi NE 9.2 mph - 0.23 in Rain , Thunderstorm Light Thunderstorms and Rain
5:14 AM 64.4 °F - 64.4 °F 100% 29.67 in 10.0 mi North 8.1 mph - N/A Rain Light Rain
5:34 AM 64.4 °F - 64.4 °F 100% 29.65 in 10.0 mi NNW 9.2 mph - N/A   Clear
5:54 AM 64.4 °F - 64.4 °F 100% 29.68 in 10.0 mi WNW 5.8 mph - N/A   Scattered Clouds
6:14 AM 64.4 °F - 64.4 °F 100% 29.68 in 10.0 mi WSW 3.5 mph - N/A Thunderstorm Scattered Clouds
6:34 AM 64.4 °F - 64.4 °F 100% 29.73 in 7.0 mi SW 4.6 mph - N/A   Scattered Clouds
6:54 AM 64.4 °F - 64.4 °F 100% 29.74 in 7.0 mi West 5.8 mph - N/A   Mostly Cloudy
7:12 AM 64.4 °F - 64.4 °F 100% 29.74 in 7.0 mi WSW 3.5 mph - N/A   Scattered Clouds
7:34 AM 64.4 °F - 64.4 °F 100% 29.72 in 7.0 mi Calm Calm - N/A   Clear
7:54 AM 64.4 °F - 64.4 °F 100% 29.74 in 5.0 mi WNW 6.9 mph - N/A   Clear
8:14 AM 64.4 °F - 64.4 °F 100% 29.74 in 7.0 mi West 5.8 mph - N/A   Clear
8:34 AM 64.4 °F - 64.4 °F 100% 29.75 in 10.0 mi West 5.8 mph - N/A   Scattered Clouds
8:54 AM 66.2 °F - 66.2 °F 100% 29.76 in 10.0 mi West 8.1 mph - N/A   Scattered Clouds
9:14 AM 66.2 °F - 66.2 °F 100% 29.76 in 10.0 mi WNW 8.1 mph - N/A   Clear
9:34 AM 69.8 °F - 66.2 °F 88% 29.75 in 10.0 mi NW 11.5 mph 18.4 mph N/A   Scattered Clouds
9:54 AM 69.8 °F - 64.4 °F 83% 29.74 in 10.0 mi WNW 11.5 mph - N/A   Mostly Cloudy
10:14 AM 71.6 °F - 64.4 °F 78% 29.76 in 10.0 mi WNW 15.0 mph 19.6 mph N/A   Scattered Clouds
10:34 AM 71.6 °F - 64.4 °F 78% 29.76 in 10.0 mi West 13.8 mph 18.4 mph N/A   Scattered Clouds
10:54 AM 71.6 °F - 64.4 °F 78% 29.77 in 10.0 mi WNW 15.0 mph 20.7 mph N/A   Clear
11:14 AM 71.6 °F - 64.4 °F 78% 29.77 in 10.0 mi West 16.1 mph 19.6 mph N/A   Clear
11:34 AM 71.6 °F - 62.6 °F 73% 29.77 in 10.0 mi West 11.5 mph 23.0 mph N/A   Clear
11:54 AM 73.4 °F - 64.4 °F 73% 29.77 in 10.0 mi West 12.7 mph 18.4 mph N/A   Clear
12:14 PM 73.4 °F - 64.4 °F 73% 29.78 in 10.0 mi WNW 13.8 mph 23.0 mph N/A   Clear
12:34 PM 75.2 °F - 64.4 °F 69% 29.78 in 10.0 mi WNW 13.8 mph 19.6 mph N/A   Scattered Clouds
12:53 PM 75.2 °F - 64.4 °F 69% 29.79 in 10.0 mi WNW 9.2 mph 18.4 mph N/A   Mostly Cloudy
1:14 PM 75.2 °F - 66.2 °F 73% 29.80 in 10.0 mi WNW 11.5 mph 18.4 mph N/A   Mostly Cloudy
1:34 PM 75.2 °F - 66.2 °F 73% 29.81 in 10.0 mi West 11.5 mph 19.6 mph N/A   Scattered Clouds
1:51 PM 77.0 °F - 66.2 °F 69% 29.81 in 10.0 mi West 6.9 mph 19.6 mph N/A   Scattered Clouds
2:14 PM 77.0 °F - 64.4 °F 65% 29.81 in 10.0 mi West 10.4 mph 16.1 mph N/A   Scattered Clouds
2:34 PM 77.0 °F - 64.4 °F 65% 29.81 in 10.0 mi West 10.4 mph 16.1 mph N/A   Scattered Clouds
2:54 PM 77.0 °F - 64.4 °F 65% 29.81 in 10.0 mi West 10.4 mph 16.1 mph N/A   Scattered Clouds
3:14 PM 78.8 °F - 62.6 °F 57% 29.81 in 10.0 mi WNW 10.4 mph 18.4 mph N/A   Scattered Clouds
3:34 PM 78.8 °F - 64.4 °F 61% 29.81 in 10.0 mi WNW 8.1 mph 18.4 mph N/A   Clear
3:54 PM 78.8 °F - 62.6 °F 57% 29.81 in 10.0 mi WNW 10.4 mph 18.4 mph N/A   Clear
4:14 PM 80.6 °F 81.8 °F 62.6 °F 54% 29.81 in 10.0 mi WNW 11.5 mph 16.1 mph N/A   Clear
4:34 PM 80.6 °F 81.5 °F 60.8 °F 51% 29.81 in 10.0 mi WNW 10.4 mph 16.1 mph N/A   Clear
4:54 PM 80.6 °F 81.5 °F 60.8 °F 51% 29.82 in 10.0 mi NW 9.2 mph 16.1 mph N/A   Scattered Clouds
5:14 PM 80.6 °F 81.5 °F 60.8 °F 51% 29.82 in 10.0 mi West 8.1 mph 17.3 mph N/A   Scattered Clouds
5:34 PM 78.8 °F - 59.0 °F 51% 29.83 in 10.0 mi WNW 10.4 mph 19.6 mph N/A   Scattered Clouds
5:54 PM 78.8 °F - 60.8 °F 54% 29.83 in 10.0 mi WNW 9.2 mph - N/A   Clear
6:14 PM 78.8 °F - 59.0 °F 51% 29.83 in 10.0 mi NW 8.1 mph - N/A   Clear
6:34 PM 78.8 °F - 59.0 °F 51% 29.83 in 10.0 mi WNW 9.2 mph 16.1 mph N/A   Clear
6:54 PM 78.8 °F - 60.8 °F 54% 29.84 in 10.0 mi NW 8.1 mph - N/A   Clear
7:14 PM 78.8 °F - 60.8 °F 54% 29.84 in 10.0 mi WNW 9.2 mph - N/A   Clear
7:34 PM 78.8 °F - 60.8 °F 54% 29.85 in 10.0 mi NW 8.1 mph - N/A   Clear
7:54 PM 77.0 °F - 60.8 °F 57% 29.86 in 10.0 mi NW 6.9 mph - N/A   Clear
8:14 PM 75.2 °F - 60.8 °F 61% 29.86 in 10.0 mi NW 5.8 mph - N/A   Clear
8:34 PM 75.2 °F - 60.8 °F 61% 29.86 in 10.0 mi Calm Calm - N/A   Clear
8:54 PM 75.2 °F - 60.8 °F 61% 29.86 in 10.0 mi Calm Calm - N/A   Clear
9:14 PM 71.6 °F - 62.6 °F 73% 29.86 in 10.0 mi Calm Calm - N/A   Clear
9:34 PM 71.6 °F - 62.6 °F 73% 29.86 in 10.0 mi Calm Calm - N/A   Clear
9:54 PM 69.8 °F - 62.6 °F 78% 29.86 in 10.0 mi West 4.6 mph - N/A   Clear
10:14 PM 71.6 °F - 62.6 °F 73% 29.87 in 10.0 mi West 3.5 mph - N/A   Clear
10:34 PM 69.8 °F - 62.6 °F 78% 29.88 in 10.0 mi WSW 3.5 mph - N/A   Clear
10:54 PM 69.8 °F - 62.6 °F 78% 29.88 in 10.0 mi WSW 3.5 mph - N/A   Clear
11:14 PM 68.0 °F - 62.6 °F 83% 29.88 in 10.0 mi WSW 3.5 mph - N/A   Clear
11:34 PM 66.2 °F - 62.6 °F 88% 29.89 in 10.0 mi SW 3.5 mph - N/A   Clear
11:54 PM 66.2 °F - 62.6 °F 88% 29.89 in 10.0 mi WSW 4.6 mph - N/A   Clear